FW1775 Weather Reports


time (UTC)temp
C
wind
direction
speed
KPH
gust
KPH
rain 1hr
cm
rain 24hr
cm
rain mn
cm
humidity
%
barometer
mb
20260505041008 15 193 9.7 16.1 0.00 0.03 0.00 72 964.2
20260505040509 15 158 8.0 16.1 0.00 0.03 0.00 71 964.2
20260505040009 15 182 9.7 14.5 0.00 0.03 0.00 71 964.3
20260505035508 15 181 8.0 11.3 0.00 0.03 0.03 71 964.3
20260505035009 15 157 8.0 12.9 0.00 0.03 0.03 70 964.4
20260505034508 15 160 9.7 12.9 0.00 0.03 0.03 70 964.4
20260505034008 15 193 9.7 12.9 0.00 0.03 0.03 70 964.4
20260505033009 15 196 9.7 14.5 0.00 0.03 0.03 69 964.5
20260505032009 15 213 8.0 16.1 0.00 0.03 0.03 68 964.7
20260505031508 15 182 9.7 16.1 0.00 0.03 0.03 67 964.7
20260505031008 15 203 8.0 14.5 0.00 0.03 0.03 67 964.9
20260505030508 15 145 9.7 14.5 0.00 0.03 0.03 67 964.9
20260505030008 15 161 8.0 14.5 0.00 0.03 0.03 66 964.8
20260505025508 15 180 9.7 14.5 0.00 0.03 0.03 65 964.8
20260505025008 15 158 9.7 14.5 0.00 0.03 0.03 65 964.9
20260505024508 16 166 11.3 14.5 0.00 0.03 0.03 64 964.9
20260505023508 16 239 9.7 20.9 0.00 0.03 0.03 63 965.1
20260505023009 16 180 11.3 20.9 0.00 0.03 0.03 63 965.1
20260505022508 16 181 11.3 12.9 0.00 0.03 0.03 63 964.9
20260505022008 16 198 8.0 12.9 0.00 0.03 0.03 63 964.9
20260505021508 16 171 8.0 12.9 0.00 0.03 0.03 63 964.9
20260505020008 16 172 8.0 12.9 0.00 0.03 0.03 62 965.0
20260505015508 16 163 8.0 12.9 0.00 0.03 0.03 62 965.0
20260505015008 16 167 9.7 14.5 0.00 0.03 0.03 62 965.1
20260505014508 16 188 11.3 14.5 0.00 0.03 0.03 63 965.2
20260505013008 16 176 11.3 16.1 0.00 0.05 0.03 62 965.2
20260505012508 16 170 8.0 16.1 0.00 0.05 0.03 62 965.2
20260505012008 16 174 6.4 16.1 0.00 0.05 0.03 62 965.2
20260505011508 16 187 11.3 16.1 0.00 0.05 0.03 62 965.1
20260505010508 16 189 9.7 12.9 0.00 0.05 0.03 62 964.9
20260505010009 16 192 8.0 14.5 0.00 0.05 0.03 62 965.0
20260505005508 16 123 9.7 14.5 0.00 0.05 0.03 62 965.0
20260505005008 16 153 8.0 11.3 0.00 0.05 0.03 62 965.1
20260505004008 17 165 9.7 12.9 0.00 0.05 0.03 62 965.1
20260505002508 17 180 6.4 14.5 0.00 0.05 0.03 61 965.1
20260505002008 17 168 8.0 14.5 0.00 0.05 0.03 60 965.1
20260505001508 18 163 8.0 14.5 0.00 0.05 0.03 60 965.1
20260505000508 18 183 9.7 16.1 0.00 0.05 0.03 59 965.1
20260504235508 18 155 9.7 16.1 0.00 0.05 0.03 59 965.4
20260504235008 18 174 8.0 12.9 0.00 0.05 0.03 58 965.3
20260504234508 19 186 8.0 14.5 0.00 0.05 0.03 58 965.3
20260504234008 19 163 9.7 16.1 0.00 0.05 0.03 58 965.3
20260504233507 19 189 9.7 16.1 0.00 0.05 0.03 58 965.1
20260504232008 20 187 9.7 12.9 0.00 0.05 0.03 58 965.1
20260504231508 20 157 9.7 12.9 0.00 0.05 0.03 57 965.1
20260504231007 20 130 8.0 11.3 0.00 0.05 0.03 56 965.1
20260504230008 20 158 4.8 9.7 0.00 0.05 0.03 52 965.2
20260504224508 21 190 3.2 8.0 0.00 0.05 0.03 48 965.1
20260504224008 21 200 4.8 12.9 0.00 0.05 0.03 48 965.1
20260504223008 21 170 9.7 14.5 0.00 0.05 0.03 48 964.9
20260504222507 22 187 9.7 14.5 0.00 0.05 0.03 48 965.0
20260504222007 22 185 6.4 11.3 0.00 0.08 0.03 48 965.0
20260504221508 22 221 4.8 14.5 0.00 0.10 0.03 48 965.0
20260504221007 22 180 9.7 16.1 0.00 0.13 0.03 47 964.8
20260504220007 22 184 12.9 16.1 0.00 0.15 0.03 47 964.9
20260504215508 22 182 11.3 16.1 0.00 0.15 0.03 46 964.9
20260504215008 23 144 9.7 16.1 0.00 0.15 0.03 47 965.1
20260504214507 23 189 9.7 19.3 0.00 0.15 0.03 47 965.1
20260504214008 23 211 8.0 19.3 0.00 0.15 0.03 48 965.1
20260504213508 23 167 9.7 20.9 0.00 0.15 0.03 48 964.8
20260504212508 22 170 9.7 12.9 0.00 0.18 0.03 50 965.0
20260504211508 22 159 6.4 11.3 0.00 0.18 0.03 52 965.0
20260504210508 22 207 4.8 12.9 0.00 0.20 0.03 52 965.0
20260504210008 22 143 9.7 14.5 0.00 0.20 0.03 50 965.3
20260504205507 22 203 9.7 14.5 0.00 0.20 0.03 52 965.3
20260504205008 21 166 8.0 16.1 0.00 0.20 0.03 52 965.2
20260504204508 22 181 9.7 16.1 0.00 0.23 0.03 52 965.2
20260504204008 22 129 8.0 14.5 0.00 0.23 0.03 52 965.2
20260504203508 22 237 8.0 14.5 0.00 0.23 0.03 51 965.5
20260504203007 22 228 8.0 14.5 0.00 0.23 0.03 51 965.5
20260504202508 23 147 8.0 14.5 0.00 0.23 0.03 51 965.6
20260504202007 22 232 6.4 14.5 0.00 0.23 0.03 52 965.6
20260504201508 22 150 9.7 19.3 0.00 0.23 0.03 51 965.6
20260504201007 22 180 9.7 19.3 0.00 0.23 0.03 50 965.6
20260504200508 23 137 9.7 19.3 0.00 0.23 0.03 48 965.6
20260504200008 23 182 6.4 14.5 0.00 0.23 0.03 49 965.6
20260504195008 23 177 8.0 12.9 0.00 0.23 0.03 48 965.9
20260504194507 22 268 6.4 16.1 0.00 0.23 0.03 51 965.9
20260504193507 22 172 11.3 19.3 0.00 0.23 0.03 50 966.0
20260504193007 22 143 6.4 16.1 0.00 0.23 0.03 51 966.0
20260504192508 22 185 11.3 19.3 0.00 0.23 0.03 50 966.2
20260504192008 23 136 9.7 19.3 0.00 0.23 0.03 49 966.2
20260504191508 23 207 9.7 25.7 0.00 0.23 0.03 50 966.2
20260504191008 22 202 11.3 25.7 0.00 0.23 0.03 51 966.3
20260504190007 22 167 8.0 12.9 0.00 0.23 0.03 54 966.5
20260504185007 21 177 9.7 14.5 0.00 0.23 0.03 56 966.6
20260504184508 20 146 9.7 16.1 0.00 0.23 0.03 59 966.6
20260504183007 21 177 9.7 14.5 0.00 0.23 0.03 60 966.8
20260504182007 20 182 12.9 20.9 0.00 0.23 0.03 60 966.8
20260504181507 21 149 14.5 20.9 0.00 0.23 0.03 60 966.8
20260504181008 21 184 11.3 19.3 0.00 0.23 0.03 60 967.0
20260504180507 21 195 12.9 19.3 0.00 0.23 0.03 60 967.0
20260504180007 20 168 9.7 14.5 0.00 0.23 0.03 64 967.2
20260504175507 20 166 11.3 16.1 0.00 0.23 0.03 61 967.2
20260504175007 21 171 11.3 19.3 0.00 0.23 0.03 62 967.2
20260504174508 20 158 14.5 19.3 0.00 0.23 0.03 62 967.2
20260504174007 21 184 9.7 16.1 0.00 0.23 0.03 61 967.2
20260504173507 21 178 9.7 19.3 0.00 0.23 0.03 61 967.5
20260504173007 20 158 11.3 19.3 0.00 0.23 0.03 62 967.5
20260504172008 20 193 11.3 16.1 0.00 0.23 0.03 63 967.7
20260504171507 20 163 11.3 16.1 0.00 0.23 0.03 61 967.7
20260504171007 20 146 8.0 14.5 0.00 0.23 0.03 62 968.0
20260504170507 20 162 11.3 16.1 0.00 0.23 0.03 63 968.0
20260504151008 16 202 8.0 12.9 0.00 0.23 0.03 69 969.4
20260504140507 15 186 6.4 11.3 0.00 0.23 0.03 74 969.4
20260504110506 5 158 0.0 0.0 0.00 0.23 0.03 99 969.8
20260504100508 5 180 0.0 0.0 0.00 0.23 0.03 99 969.7
20260504081509 6 158 0.0 0.0 0.00 0.23 0.03 99 970.5
20260504081009 6 180 0.0 0.0 0.00 0.23 0.03 99 970.5
20260504080509 6 167 0.0 0.0 0.00 0.23 0.03 99 970.5
20260504050509 7 133 0.0 1.6 0.00 0.20 0.00 99 971.4
20260504050009 7 180 0.0 1.6 0.00 0.20 0.00 99 971.4
20260504045508 7 128 0.0 1.6 0.00 0.20 0.00 99 971.4